Alameda, CA

10:05 AM PST on February 27, 2017 (GMT -0800)
Metro Oakland International

Weather History for KOAK - December, 2013

Change the Weather History Date:

Monday, December 2, 2013

  Actual Average Record
Temperature  
Mean Temperature 51 °F 50 °F  
Max Temperature 61 °F 59 °F 72 °F (1959)
Min Temperature 41 °F 42 °F 33 °F (2004)
Degree Days  
Heating Degree Days 14 15  
Month to date heating degree days 27 29  
Since 1 July heating degree days 582 704  
Cooling Degree Days 0 0  
Month to date cooling degree days 0 0  
Year to date cooling degree days 212 138  
Moisture  
Dew Point 48 °F    
Average Humidity 80    
Maximum Humidity 93    
Minimum Humidity 67    
Precipitation  
Precipitation 0.00 in 0.08 in 1.42 in (2001)
Month to date precipitation 0.00 0.16  
Year to date precipitation 4.61 17.31  
Since 1 July precipitation 1.79  
Sea Level Pressure  
Sea Level Pressure 30.12 in    
Wind  
Wind Speed 5 mph (West)    
Max Wind Speed 16 mph    
Max Gust Speed 20 mph    
Visibility 8 miles    
Events Fog    
T = Trace of Precipitation, MM = Missing Value Source: NWS Daily Summary

Daily Weather History Graph

Daily Weather History Graph

Search for Another Location

Airport or City:

Trip Planner

Search our weather history database for the weather conditions in past years. The results will help you decide how hot, cold, wet, or windy it might be!

Date:

Astronomy

Dec. 02, 2013 Rise Set
Actual Time 7:06 AM PST 4:50 PM PST
Civil Twilight 6:37 AM PST 5:19 PM PST
Nautical Twilight 6:05 AM PST 5:51 PM PST
Astronomical Twilight 5:33 AM PST 6:23 PM PST
Moon 6:38 AM PST (12/2) 4:57 PM PST (12/2)
Length of Visible Light 10h 41m
Length of Day
9h 43m
Waning Crescent, 0% of the Moon is Illuminated
Dec 2
Waning Crescent
Dec 2
New
Dec 9
First Quarter
Dec 17
Full
Dec 25
Last Quarter

Hourly Weather History & Observations

Time (PST) Temp. Windchill Dew Point Humidity Pressure Visibility Wind Dir Wind Speed Gust Speed Precip Events Conditions
12:53 AM 46.0 °F - 41.0 °F 83% 30.23 in 10.0 mi Calm Calm - N/A   Clear
1:53 AM 46.9 °F - 42.1 °F 83% 30.23 in 10.0 mi Calm Calm - N/A   Clear
2:53 AM 44.1 °F 42.5 °F 41.0 °F 89% 30.19 in 10.0 mi East 3.5 mph - N/A   Clear
3:53 AM 44.1 °F - 39.9 °F 85% 30.18 in 10.0 mi Calm Calm - N/A   Clear
4:53 AM 41.0 °F - 37.9 °F 89% 30.17 in 9.0 mi Calm Calm - N/A   Clear
5:53 AM 42.1 °F - 39.9 °F 92% 30.16 in 9.0 mi Calm Calm - N/A   Partly Cloudy
6:53 AM 46.0 °F 44.8 °F 42.1 °F 86% 30.17 in 10.0 mi NW 3.5 mph - N/A Fog Shallow Fog
7:30 AM 46.4 °F 43.5 °F 44.6 °F 93% 30.19 in 0.1 mi NW 5.8 mph - N/A Fog Fog
7:53 AM 48.9 °F - 46.9 °F 93% 30.19 in 0.1 mi Calm Calm - N/A Fog Fog
8:42 AM 50.0 °F - 48.2 °F 94% 30.18 in 1.0 mi WSW 3.5 mph - N/A   Mist
8:45 AM 50.0 °F - 48.2 °F 94% 30.18 in 3.0 mi WSW 4.6 mph - N/A   Overcast
8:47 AM 50.0 °F - 48.2 °F 94% 30.18 in 0.2 mi West 5.8 mph - N/A Fog Fog
8:53 AM 50.0 °F - 48.0 °F 93% 30.17 in 0.2 mi West 4.6 mph - N/A Fog Fog
9:38 AM 51.8 °F - 50.0 °F 94% 30.19 in 3.0 mi WNW 4.6 mph - N/A   Overcast
9:53 AM 51.1 °F - 48.9 °F 92% 30.18 in 6.0 mi South 6.9 mph - N/A   Overcast
10:53 AM 54.0 °F - 48.9 °F 83% 30.16 in 10.0 mi WSW 4.6 mph - N/A   Mostly Cloudy
11:53 AM 57.9 °F - 48.9 °F 72% 30.13 in 10.0 mi Calm Calm - N/A   Scattered Clouds
12:53 PM 59.0 °F - 48.9 °F 69% 30.09 in 10.0 mi Variable 3.5 mph - N/A   Scattered Clouds
1:53 PM 57.9 °F - 48.9 °F 72% 30.07 in 10.0 mi SSW 3.5 mph - N/A   Mostly Cloudy
2:53 PM 59.0 °F - 50.0 °F 72% 30.05 in 10.0 mi WSW 5.8 mph - N/A   Overcast
3:53 PM 59.0 °F - 51.1 °F 75% 30.05 in 10.0 mi SW 4.6 mph - N/A   Mostly Cloudy
4:53 PM 57.0 °F - 51.1 °F 81% 30.04 in 10.0 mi West 13.8 mph - N/A   Mostly Cloudy
5:53 PM 55.0 °F - 50.0 °F 83% 30.03 in 10.0 mi WNW 10.4 mph - N/A   Scattered Clouds
6:53 PM 55.0 °F - 50.0 °F 83% 30.02 in 10.0 mi WNW 13.8 mph - N/A   Scattered Clouds
7:53 PM 55.0 °F - 51.1 °F 86% 30.04 in 10.0 mi NW 10.4 mph - N/A   Partly Cloudy
8:53 PM 55.0 °F - 51.1 °F 86% 30.03 in 10.0 mi NW 5.8 mph - N/A   Partly Cloudy
9:53 PM 55.0 °F - 51.1 °F 86% 30.01 in 10.0 mi WNW 9.2 mph - N/A   Partly Cloudy
10:53 PM 55.0 °F - 52.0 °F 89% 30.00 in 10.0 mi West 9.2 mph - N/A   Scattered Clouds
11:02 PM 55.4 °F - 53.6 °F 94% 30.00 in 10.0 mi West 4.6 mph - N/A   Overcast
11:53 PM 55.9 °F - 53.1 °F 90% 29.99 in 10.0 mi West 10.4 mph - N/A   Overcast